OBJECT C

Satellite information

Favourite Embed

Satellite Type and Status

UNKNOWNDECAYED

Key statistics

Satellite OBJECT C at a glance.

Uptime

823

Days in orbit

Revolutions

≈ 16.4

Per day

Orbit

SSO

Sun Synchronous Orbit

Inclination

97.6

Latest

Satellite identification and parameters

Extended collection of information and parameters for OBJECT C.

Object identification

Identified? True

Debris? False

Object name: OBJECT C

International designator: 2022-167C

Object number (NORAD): 54684

Object ID (CCSDS): 54684

Country: PEOPLES REPUBLIC OF CHINA (PRC)

Current information (Y/N): Y

RCS size: MEDIUM

Orbital parameters

Decay date: March 11, 2025

Period: 87.956 minutes

Inclination: 97.5856 deg

SMA: 6551.437 km

Apoapsis: 180.984 km

Periapsis: 165.621 km

RAAN: 230.7463 deg

Eccentricy: 0.0011725

Argument of periapsis: 277.2083 deg

Mean anomaly: 82.7881 deg

Mean motion: 16.37185507 rev/day

Mean motion (dot): 0.08547514 rev/day2

B* drag term: 0.0009317 1/REarth

Two-line elements (TLE)

Creation date: March 6, 2025, 2:35 a.m.

Reference frame: TEME

Reference center: EARTH

Epoch: March 5, 2025, 4:21 p.m. UTC

TLE line 0: 0 OBJECT C

TLE line 1: 1 54684U 22167C 25064.68183564 .08547514 26414-5 93170-3 0 9992

TLE line 2: 2 54684 97.5856 230.7463 0011725 277.2083 82.7881 16.37185507124845

Live tracking on map

Satellite OBJECT C has decayed and is no longer in orbit. No tracking available.

In-orbit conjunctions

Satellite OBJECT C has decayed and is no longer in orbit. No conjunctions available.

Associated space launch

First flight of the new solid fuel powered rocket developed by CAST. Payload consists of 14 satellites: * Jilin-1 HR-03D 44-50 * Jilin-1 PT-01A 01 * Tianqi-7 * HEAD-2H * CAS-5A * Golden Bauhinia 1-05 & 06 * Huoju-1

OBJECT C was lifted into orbit during the mission ‘Smart Dragon 3 | Maiden Flight’, on board a Smart Dragon 3 space rocket.

The launch took place on Dec. 9, 2022, 6:35 a.m. from Tai Rui mobile launch platform.

For more information about the launch, click the button.

Launch to space Smart Dragon 3 | Maiden Flight
Smart Dragon 3 | Maiden Flight

Agency: N/A

Status: Launch Successful

Launch date: Dec. 9, 2022, 6:35 a.m. UTC

Rocket: Smart Dragon 3

Launch pad: Tai Rui mobile launch platform

Location: Sea Launch

...

Latest news about this satellite

News about space launch
China launches 14 satellites with new solid rocket from mobile sea platform

China launched its new Jielong-3 rocket from a mobile sea platform in the Yellow Sea Friday, successfully sending 14 satellites into orbit.


Newsletter sign-up

Weekly statistics, charts and insights to help you stay on top of the space industry.